Location: Vancouver
(49.2500°N, 123.1330°W)
Time: 01:36:33
(UTC-08:00)

Transit 2A Rocket - Visible Passes

Search period start: 09 December 2016 00:00
Search period end: 19 December 2016 00:00
Orbit: 591 x 914 km, 66.7° (Epoch: 08 December)

Date Brightness Start Highest point End Pass type
(mag) Time Alt. Az. Time Alt. Az. Time Alt. Az.
09 Dec 6.5 05:11:17 19° S 05:11:17 19° S 05:12:35 10° S visible
09 Dec 7.4 19:41:10 10° SSW 19:42:03 14° SSW 19:42:03 14° SSW visible
10 Dec 6.7 18:59:23 10° S 19:01:41 22° SSE 19:01:41 22° SSE visible
10 Dec 7.9 20:41:35 10° WSW 20:41:40 10° WSW 20:41:40 10° WSW visible
11 Dec 6.5 18:18:05 10° SSE 18:21:15 21° SE 18:21:15 21° SE visible
11 Dec 6.9 19:58:55 10° SW 20:01:13 25° SW 20:01:13 25° SW visible
12 Dec 6.8 17:37:37 10° SE 17:40:21 14° ESE 17:40:44 14° E visible
12 Dec 5.7 19:16:32 10° SSW 19:20:41 48° SSW 19:20:41 48° SSW visible
12 Dec 8.0 21:00:36 10° W 21:00:39 10° W 21:00:39 10° W visible
13 Dec 5.3 18:34:29 10° S 18:39:57 47° ESE 18:40:05 47° ESE visible
13 Dec 7.1 20:17:29 10° WSW 20:20:02 24° W 20:20:02 24° W visible
14 Dec 6.0 17:52:50 10° S 17:57:45 30° ESE 17:59:24 25° E visible
14 Dec 5.8 19:34:38 10° SW 19:39:21 50° W 19:39:21 50° W visible
15 Dec 6.6 17:11:44 10° SSE 17:15:38 19° ESE 17:18:39 12° ENE visible
15 Dec 5.0 18:52:03 10° SW 18:57:44 84° NW 18:58:35 64° NNE visible
15 Dec 7.6 20:36:48 10° W 20:38:32 17° WNW 20:38:32 17° WNW visible
16 Dec 5.1 18:09:46 10° SSW 18:15:23 64° ESE 18:17:45 33° NE visible
16 Dec 6.7 19:53:31 10° W 19:57:41 29° NW 19:57:41 29° NW visible
17 Dec 5.6 17:27:50 10° S 17:33:08 41° ESE 17:36:51 17° NE visible
17 Dec 5.9 19:10:28 10° WSW 19:15:46 43° NW 19:16:47 38° NNW visible
17 Dec 8.0 20:56:42 10° WNW 20:56:43 10° WNW 20:56:43 10° WNW visible
18 Dec 6.3 16:46:21 10° SSE 16:50:57 26° ESE 16:55:16 10° ENE visible
18 Dec 5.4 18:27:41 10° SW 18:33:16 63° NW 18:35:50 30° NNE visible
18 Dec 7.3 20:13:05 10° WNW 20:15:46 18° NW 20:15:46 18° NW visible
